EHI
0 0 0 0 1 5 8 10 10 8 5 3 1 1 1 2 3 3 3 3 3 3 2 1 0 0 0 0 0 0 0 0 0 0 0 0 0 0 0 0 0 0 0
0 0 0 0 1 4 8 10 10 10 7 4 2 2 3 3 3 3 3 3 3 3 1 0 0 0 0 0 0 0 0 0 0 0 0 0 0 0 0 0 0 0 0
1 0 0 0 1 3 6 9 11 11 9 5 2 3 4 4 3 3 3 3 3 2 1 0 0 0 0 0 0 0 0 0 0 0 0 0 0 0 0 0 0 0 0
2 1 1 1 2 3 5 10 11 10 7 4 2 2 3 3 3 2 3 3 3 2 1 1 0 0 0 1 1 0 0 0 0 0 0 0 0 0 0 0 0 0 0
3 3 3 4 3 3 5 8 10 8 5 3 1 1 3 3 3 3 3 3 2 1 1 1 0 0 1 2 1 0 0 0 0 0 0 0 0 0 0 0 0 0 0
4 4 5 7 6 4 4 6 7 6 4 2 1 2 3 3 3 3 3 3 2 1 1 1 1 0 1 1 1 0 0 0 0 0 0 0 0 0 0 0 0 0 0
6 5 7 9 8 6 4 4 4 4 3 2 2 3 3 3 3 3 2 2 1 0 1 1 1 1 1 0 0 0 0 0 0 0 0 0 0 0 0 0 0 0 0
7 7 7 8 8 6 4 3 3 4 4 4 3 3 3 3 2 1 1 1 1 0 1 1 1 0 0 0 0 0 0 0 0 0 0 0 0 0 0 0 0 0 0
6 6 7 7 7 5 4 3 4 5 6 5 4 3 2 1 1 0 0 0 0 0 0 0 0 0 0 0 0 0 0 0 0 0 0 0 0 0 0 0 0 0 0
5 5 6 6 6 4 3 3 4 5 6 5 2 1 1 0 0 0 0 0 0 0 0 0 0 0 0 0 0 0 0 0 0 0 0 0 0 0 0 0 0 0 0
4 4 4 5 6 4 3 3 3 4 4 3 1 0 0 0 0 0 0 0 0 0 0 0 0 0 0 0 0 0 0 0 0 0 0 0 0 0 0 0 0 0 0
3 3 3 4 5 5 4 3 3 3 3 2 1 0 0 0 0 0 0 0 0 0 0 0 0 0 0 0 0 0 0 0 0 0 0 0 0 0 0 0 0 0 0
3 3 3 3 4 4 4 3 3 3 2 1 0 0 0 0 0 0 0 0 0 0 0 0 0 0 0 0 0 0 0 0 0 0 0 0 1 0 0 0 0 0 0
3 2 1 1 1 2 3 3 3 2 1 0 0 0 0 0 0 0 0 0 0 0 0 0 0 0 0 0 0 0 0 0 0 0 0 1 2 2 1 0 0 0 0
2 1 0 0 1 1 1 1 2 1 0 0 0 0 0 0 0 0 0 0 0 0 0 0 0 0 0 0 0 0 0 0 0 0 0 1 3 4 3 1 0 0 0
1 0 0 0 1 2 1 0 0 0 0 0 0 0 0 0 0 0 0 0 0 0 0 0 0 0 0 0 0 0 0 0 0 0 0 0 2 3 3 2 1 0 0
0 0 0 0 1 2 1 0 0 0 0 0 0 0 0 0 0 0 0 0 0 0 0 0 0 0 0 0 0 0 0 0 0 0 0 0 0 1 2 3 2 1 0
3 3 2 1 1 1 1 0 0 0 0 0 0 0 0 0 0 0 0 0 0 0 0 0 0 0 0 0 0 0 0 0 0 0 0 0 0 0 1 2 3 2 1
9 8 6 5 3 2 0 0 0 0 0 0 0 0 0 0 0 0 0 0 0 0 0 0 0 0 0 0 0 0 0 0 0 0 0 0 0 0 0 1 2 2 1
13 11 9 8 5 3 1 0 0 0 0 0 0 0 0 0 0 0 0 0 0 0 0 0 0 0 0 0 0 0 0 0 0 0 0 0 0 0 0 0 1 1 0
17 15 12 9 6 4 3 1 1 1 0 0 0 0 0 0 0 1 1 0 0 0 0 0 0 0 0 0 0 0 0 0 0 0 0 0 0 0 0 0 0 0 0
26 25 21 14 10 8 6 3 2 1 1 1 0 1 1 0 0 1 1 0 0 1 0 0 0 0 0 0 0 0 0 0 0 0 0 0 0 0 0 0 0 0 0
38 38 34 26 20 17 14 10 6 5 5 4 3 3 2 1 1 1 1 0 0 0 0 0 0 0 0 0 0 0 0 0 0 0 0 0 0 0 0 0 0 0 0
48 47 44 38 31 26 24 22 17 14 11 8 6 6 5 3 3 3 2 0 0 0 0 0 0 0 0 0 0 0 0 0 0 0 0 0 0 0 0 0 0 0 0
49 49 48 43 36 32 30 30 28 21 14 9 7 7 7 6 5 5 3 1 1 0 0 0 0 0 1 0 0 0 0 0 0 0 0 0 0 0 0 0 0 0 0
47 47 48 43 36 33 31 31 31 23 13 7 6 7 9 8 6 6 5 3 2 1 0 0 0 0 1 0 0 0 0 0 0 0 0 0 0 0 0 0 0 0 0
Wind_Speed
2 3 10 13 14 15 16 17 18 18 18 18 18 18 18 17 17 17 17 17 16 16 17 17 17 17 17 17 17 16 16 16 16 16 16 16 16 15 15 15 14 12 16
5 5 12 13 14 15 15 16 17 17 17 17 17 17 17 17 17 17 17 16 17 17 17 17 17 17 17 16 16 16 16 16 16 16 15 14 15 15 14 15 14 11 15
7 6 9 13 14 15 15 15 16 16 16 17 16 16 16 16 16 17 16 16 16 17 17 17 17 16 16 16 16 16 16 15 15 16 14 9 11 14 14 15 15 15 14
7 6 8 13 13 14 14 14 14 15 16 16 16 15 15 16 16 16 16 16 16 17 17 16 16 16 16 15 15 15 15 15 15 14 8 7 8 13 14 14 14 14 14
7 5 8 14 13 14 14 13 14 14 15 15 15 15 15 16 16 16 16 15 16 16 16 16 16 15 15 14 14 14 14 14 14 11 8 7 7 12 14 14 14 14 13
6 5 8 14 13 13 13 13 13 14 14 14 14 14 14 15 15 15 15 15 15 15 16 15 15 14 14 14 13 13 13 14 11 8 7 7 6 11 13 13 13 13 13
6 5 7 13 13 13 12 12 13 13 13 14 14 14 14 14 14 15 15 15 15 15 15 14 13 13 13 13 13 13 13 14 8 7 6 6 7 11 13 13 13 13 12
6 5 7 12 13 12 12 12 12 13 13 13 13 13 13 13 13 14 13 14 14 14 13 13 12 12 11 12 12 12 13 12 9 7 6 6 9 11 12 12 12 12 12
6 5 4 6 8 11 11 11 12 12 12 12 12 13 13 13 13 13 12 12 12 12 12 12 12 11 11 11 11 11 12 12 7 5 6 5 10 12 12 12 12 12 12
5 4 4 5 4 4 6 10 11 11 11 11 12 12 12 12 11 12 10 11 11 11 11 11 11 10 10 10 10 11 12 10 6 6 4 6 11 11 12 12 11 11 11
6 4 4 5 4 4 4 7 8 10 10 9 8 11 9 5 5 6 8 10 10 10 10 10 10 10 9 9 10 11 10 4 5 4 3 8 10 11 11 11 11 11 11
8 6 4 5 4 4 4 4 3 3 4 4 4 5 4 4 3 5 6 9 9 9 9 9 9 9 7 4 7 9 4 5 4 3 4 9 9 10 10 10 10 10 10
8 7 6 5 4 4 3 3 2 2 3 3 5 5 4 3 3 3 2 3 4 5 4 5 5 4 4 3 3 4 4 4 3 3 4 9 8 9 10 10 10 10 10
9 8 6 5 4 4 3 3 3 2 2 2 3 4 3 2 2 2 2 2 2 2 3 3 2 3 3 3 4 4 4 3 3 2 3 9 8 9 9 9 9 9 9
9 8 7 6 6 4 4 3 3 3 3 3 3 3 3 3 2 2 1 1 2 2 2 2 2 3 3 3 3 4 4 4 4 3 2 8 8 8 8 9 9 9 9
10 9 8 7 6 5 4 3 3 3 3 3 3 3 3 3 2 2 2 1 1 1 1 2 2 2 2 2 2 3 4 4 4 4 3 4 8 8 8 9 9 9 9
11 9 9 8 7 6 5 4 3 3 3 3 3 3 4 4 3 3 2 1 1 1 2 2 2 2 2 2 2 2 3 3 4 4 3 2 4 7 9 9 9 9 9
9 9 9 10 8 7 6 4 3 3 3 3 3 3 4 5 4 3 3 2 2 1 1 1 2 2 1 2 1 1 2 2 3 4 3 3 2 3 6 9 9 8 9
10 10 9 8 9 8 6 4 3 3 3 3 3 3 4 5 5 4 3 2 3 2 2 2 1 1 2 2 2 1 1 2 2 3 4 4 4 3 3 5 8 8 10
9 9 9 8 8 7 5 3 2 2 3 3 3 4 5 4 5 4 3 3 3 2 2 1 2 1 1 2 1 1 0 1 2 3 4 4 4 5 5 5 5 6 10
9 9 10 9 8 7 5 4 4 3 3 3 3 5 5 5 5 5 4 4 4 3 3 3 2 2 1 1 2 1 1 1 3 3 4 4 5 6 6 6 5 4 4
12 12 11 10 9 9 7 5 3 3 2 3 3 3 5 5 6 6 5 4 4 4 4 4 3 2 2 2 3 2 1 2 2 3 4 5 6 5 6 7 7 6 5
13 13 12 11 10 9 7 4 3 2 1 2 3 3 5 6 6 6 6 5 5 5 5 5 5 5 3 2 2 3 3 3 2 2 3 5 5 5 6 6 8 8 8
13 11 10 10 9 8 8 8 8 6 5 6 4 4 4 5 6 6 6 6 6 5 5 6 5 4 4 3 2 2 2 3 2 2 2 3 5 6 7 6 7 8 8
10 10 9 9 9 8 9 9 9 7 5 3 3 4 4 4 6 7 7 6 6 5 6 5 5 5 4 4 4 3 2 1 2 2 3 2 2 4 5 7 6 6 8
8 9 9 10 9 9 10 9 9 9 7 5 5 5 4 3 4 6 7 6 6 6 6 6 6 7 6 5 4 4 4 3 4 4 4 4 3 3 4 5 6 6 7
Wind_Direction
124 134 121 111 107 104 103 103 105 105 106 107 109 110 109 109 108 108 107 106 104 103 102 102 103 104 107 108 109 111 111 110 110 109 109 109 108 108 107 106 103 103 105
133 131 122 114 110 109 106 106 106 107 108 108 109 110 110 109 108 107 107 106 106 105 104 105 105 105 107 108 109 109 109 110 110 109 110 109 108 109 108 106 105 108 108
123 121 120 117 114 113 110 108 108 109 110 110 110 111 111 111 110 108 107 106 106 107 106 106 106 106 106 107 108 109 109 108 109 107 103 100 106 109 110 109 109 107 107
123 117 123 120 117 115 114 112 111 112 112 113 112 112 112 111 110 109 108 107 108 108 108 107 107 107 107 107 108 108 108 107 105 102 94 99 106 111 111 110 109 109 109
118 118 131 124 120 117 116 114 114 114 115 115 114 113 113 113 112 110 109 108 109 109 108 108 108 107 107 108 109 108 107 107 103 97 90 89 96 112 112 112 111 111 111
120 124 136 127 124 120 118 117 117 116 116 115 115 114 114 114 114 113 111 109 108 108 108 108 108 107 107 110 111 111 109 107 100 96 94 97 103 114 116 115 113 111 111
128 129 134 131 128 124 123 122 120 119 118 117 117 116 115 115 115 113 112 111 109 109 108 107 108 108 109 111 112 112 113 111 102 99 97 100 110 115 116 115 113 112 113
129 123 131 135 132 129 127 127 124 122 121 120 120 118 116 115 115 114 114 113 112 111 110 110 109 108 109 111 113 115 118 117 110 106 100 105 117 116 117 115 114 115 115
117 113 115 128 133 135 133 131 129 127 125 124 122 121 120 118 117 116 115 115 115 115 113 111 109 107 109 114 116 117 119 117 110 111 112 110 120 119 119 120 118 117 117
114 110 112 111 112 120 130 135 134 132 130 129 128 127 125 123 122 120 116 118 117 116 115 114 111 109 110 116 118 117 115 112 109 109 110 124 126 126 125 122 121 119 119
139 121 119 116 114 117 128 141 136 136 135 132 130 128 114 91 96 109 122 124 121 120 118 116 112 108 104 110 117 117 109 110 115 112 117 132 131 131 130 129 127 125 124
161 153 136 132 131 132 138 112 100 105 108 97 92 98 92 91 101 112 128 128 124 119 117 113 106 99 90 90 105 108 107 118 118 123 136 139 137 135 134 134 133 132 131
164 163 155 148 140 133 116 115 95 90 95 99 104 106 103 92 87 78 74 95 92 94 81 90 83 80 90 98 102 112 122 122 126 136 148 147 147 145 143 142 142 140 139
167 170 162 155 147 141 130 127 121 116 113 112 117 120 115 109 98 92 84 77 71 74 83 81 85 89 94 109 122 128 133 132 134 137 158 157 154 154 153 153 153 151 150
173 173 170 164 160 152 142 151 146 139 135 132 130 136 138 135 134 121 109 97 95 94 99 102 99 104 103 112 134 140 145 148 149 152 159 166 163 164 165 167 166 163 163
179 178 173 173 167 158 159 161 153 151 147 146 154 162 157 149 148 145 139 129 116 112 112 114 112 110 106 119 140 151 158 158 160 163 163 177 178 177 180 181 179 177 178
181 177 176 177 170 169 171 177 165 160 158 166 172 172 169 165 161 156 156 163 163 129 117 100 97 103 118 123 128 143 154 161 163 167 168 179 189 192 192 193 193 192 192
176 176 179 185 176 178 177 177 165 164 170 179 177 177 180 177 169 160 168 186 175 146 137 129 121 111 108 121 130 146 151 159 172 175 177 187 192 199 206 207 205 206 206
179 176 178 183 175 178 177 174 174 167 180 185 182 184 187 183 176 170 182 186 165 156 163 171 131 133 144 146 156 161 171 183 187 192 198 204 206 209 214 224 221 217 218
177 175 179 180 173 166 162 160 164 176 189 188 192 196 188 185 178 171 185 187 167 162 169 162 145 126 141 155 152 117 204 223 213 216 215 214 218 220 219 225 228 230 228
177 176 183 185 177 165 163 170 176 191 191 195 205 200 192 188 181 176 191 183 178 181 184 173 158 151 149 126 104 46 348 265 237 234 226 224 227 226 221 222 222 225 233
185 184 186 190 182 180 182 174 168 164 177 190 202 199 195 191 186 193 190 190 186 182 181 179 167 158 171 161 144 122 334 319 272 237 223 225 231 226 226 225 223 222 226
190 189 192 191 187 187 174 152 133 114 110 166 198 203 200 195 197 198 193 193 190 188 195 194 183 175 182 189 173 154 167 235 281 284 238 230 226 225 230 230 227 226 225
195 189 186 186 187 185 174 172 170 180 193 201 197 199 198 200 200 200 199 197 195 196 201 203 193 185 176 191 194 200 182 168 186 284 293 249 235 232 231 232 232 227 223
188 185 183 182 185 184 185 185 184 191 195 182 179 191 204 208 207 204 204 201 201 203 208 202 191 193 190 190 187 181 182 183 186 198 266 284 264 242 234 231 232 231 227
180 180 180 182 186 185 188 190 194 193 186 180 190 197 206 211 213 211 205 204 206 207 209 206 203 202 202 201 198 190 179 181 194 194 223 245 257 262 242 234 232 231 228